Location: Dortmund
(51.5019°N, 7.6520°E)
Time: 13:58:18
(UTC+02:00)

ISS - Pass Details

Date: 30 March 2017
Orbit: 400 x 409 km, 51.6° (Epoch: 23 April)

Event Time Altitude Azimuth Distance (km) Brightness Sun altitude
Rises 20:45:10 0° 219° (SW) 2,307 0.3 -7.8°
Reaches altitude 10° 20:47:26 10° 206° (SSW) 1,453 -0.9 -8.1°
Maximum altitude 20:50:12 26° 148° (SSE) 847 -2.6 -8.5°
Enters shadow 20:52:38 12° 93° (E) 1,347 -1.8 -8.9°
